sat.trackr.live / text

‹ back to catalog

STARLINK-34648

NORAD 65091 · 2025-167P

PAYLOAD ACTIVE UNKNOWN

§ Identity

Operator
Country
US
Launch date
2025-08-04
Launch site
AFETR
Launch vehicle
Mass (kg)
RCS (m²)

Purposes: comms

External: N2YO · Heavens-Above · Gunter

§ Orbital elements

Epoch: 2026-05-25T01:07:25.065696Z

Period
93.38 min
Inclination
53.1585°
Eccentricity
0.0000969
Mean motion
15.42163851 rev/d
Perigee alt
439.1 km
Apogee alt
440.4 km
Semi-major
6,817.9 km
B*
6.7129e-4
RAAN
29.6315°
Arg perigee
71.1628°
Mean anomaly
288.9483°
Rev number
4,520

§ Raw data

STARLINK-346481 65091U 25167P   26145.04681789  .00028914  00000+0  67129-3 0  99942 65091  53.1585  29.6315 0000969  71.1628 288.9483 15.42163851 45204

JSON: /api/v1/satellites/65091 · /tle

For live sub-satellite position, see the globe view (requires WebGL).

§ Visibility from observer

Set your observer location to see the next 7 days of passes ≥ 10°. The values pass through the URL so the page stays shareable.

No JS? Fill the form by hand. The geolocation button needs JavaScript.